User: anonymous   Login
Location: Unspecified
(0.0000°N, 0.0000°E)
Time: 19:44:11
(UTC+00:00)
Language:

Kosmos-2154 - Orbit

View from above orbital plane
View from above orbital plane
View from above satellite
View from above satellite

Ground track
Ground track

The orbit data is extracted from the following two-line orbital elements,

1 21666U 91059A   19341.54308454  .00000011  00000-0 -45874-5 0  9992
2 21666  82.9081  79.2907 0024917   1.5842   8.9801 13.73324029417932
Epoch (UTC): 07 December 2019 13:02:02
Eccentricity: 0.0024917
inclination: 82.9081°
perigee height: 969 km
apogee height: 1006 km
right ascension of ascending node: 79.2907°
argument of perigee: 1.5842°
revolutions per day: 13.73324029
mean anomaly at epoch: 8.9801°
orbit number at epoch: 41793

The dashed part of the orbit path shows where the satellite is in the earth's shadow,  

DLR